Change the Weather History Date:

Thursday, February 7, 2013

  Actual Average Record
Temperature  
Mean Temperature 56 °F -  
Max Temperature 66 °F 49 °F 77 °F (1969)
Min Temperature 44 °F 25 °F 10 °F (1982)
Degree Days  
Heating Degree Days 10    
Growing Degree Days 6 (Base 50)    
Moisture  
Dew Point 52 °F    
Average Humidity 85    
Maximum Humidity 100    
Minimum Humidity 56    
Precipitation  
Precipitation 0.00 in - - ()
Sea Level Pressure  
Sea Level Pressure 29.84 in    
Wind  
Wind Speed 13 mph (SE)    
Max Wind Speed 29 mph    
Max Gust Speed 39 mph    
Visibility 10 miles    
Events Rain    
Averages and records for this station are not official NWS values.
T = Trace of Precipitation, MM = Missing Value Source: NWS Daily Summary

Daily Weather History Graph

Daily Weather History Graph

Search for Another Location

Airport or City:

Trip Planner

Search our weather history database for the weather conditions in past years. The results will help you decide how hot, cold, wet, or windy it might be!

Date:

Astronomy

Feb. 07, 2013 Rise Set
Actual Time 7:26 AM CST 6:09 PM CST
Civil Twilight 7:00 AM CST 6:35 PM CST
Nautical Twilight 6:30 AM CST 7:05 PM CST
Astronomical Twilight 6:01 AM CST 7:34 PM CST
Moon 5:03 AM CST 3:38 PM CST
Length of Visible Light 11h 35m
Length of Day
10h 42m
Waning Crescent, 9% of the Moon is Illuminated
Feb 7
Waning Crescent
Feb 10
New
Feb 17
First Quarter
Feb 25
Full
Mar 4
Last Quarter

Hourly Weather History & Observations

Time (CST) Temp. Windchill Dew Point Humidity Pressure Visibility Wind Dir Wind Speed Gust Speed Precip Events Conditions
12:55 AM 58.5 °F - 56.8 °F 94% 29.81 in 10.0 mi SSE 15.0 mph - N/A   Overcast
1:04 AM 59.0 °F - 57.2 °F 94% 29.81 in 10.0 mi SE 13.8 mph - N/A   Overcast
1:55 AM 58.6 °F - 57.0 °F 94% 29.78 in 10.0 mi SE 16.1 mph - N/A   Overcast
2:55 AM 58.8 °F - 57.4 °F 95% 29.78 in 10.0 mi South 12.7 mph - N/A   Overcast
3:31 AM 59.0 °F - 57.2 °F 94% 29.77 in 10.0 mi SSE 15.0 mph - N/A   Overcast
3:47 AM 59.0 °F - 57.2 °F 94% 29.76 in 10.0 mi SSE 15.0 mph - N/A   Overcast
3:55 AM 59.0 °F - 57.4 °F 94% 29.76 in 10.0 mi South 16.1 mph - N/A   Overcast
4:02 AM 59.0 °F - 57.2 °F 94% 29.76 in 10.0 mi SSE 13.8 mph - N/A   Overcast
4:08 AM 59.0 °F - 57.2 °F 94% 29.76 in 10.0 mi South 11.5 mph - N/A   Overcast
4:18 AM 59.0 °F - 57.2 °F 94% 29.76 in 10.0 mi South 11.5 mph - N/A   Overcast
4:19 AM 59.0 °F - 57.2 °F 94% 29.76 in 10.0 mi South 12.7 mph - N/A   Overcast
4:55 AM 59.4 °F - 56.8 °F 91% 29.75 in 10.0 mi South 12.7 mph 21.9 mph N/A   Overcast
5:55 AM 58.1 °F - 56.1 °F 93% 29.75 in 10.0 mi SSE 10.4 mph - N/A   Overcast
6:12 AM 57.2 °F - 55.4 °F 94% 29.76 in 10.0 mi SSE 9.2 mph - N/A   Overcast
6:55 AM 56.1 °F - 54.9 °F 96% 29.76 in 10.0 mi SSE 9.2 mph - N/A   Mostly Cloudy
7:00 AM 55.4 °F - 55.4 °F 100% 29.75 in 10.0 mi SSE 9.2 mph - N/A   Mostly Cloudy
7:02 AM 55.4 °F - 55.4 °F 100% 29.75 in 10.0 mi SSE 10.4 mph - N/A   Scattered Clouds
7:27 AM 55.4 °F - 53.6 °F 94% 29.75 in 10.0 mi SSE 8.1 mph - N/A   Mostly Cloudy
7:34 AM 55.4 °F - 55.4 °F 100% 29.76 in 10.0 mi SSE 8.1 mph - N/A   Mostly Cloudy
7:40 AM 55.4 °F - 55.4 °F 100% 29.76 in 10.0 mi SSE 8.1 mph - N/A   Mostly Cloudy
7:48 AM 55.4 °F - 55.4 °F 100% 29.77 in 10.0 mi SSE 6.9 mph - N/A   Overcast
7:51 AM 55.4 °F - 55.4 °F 100% 29.77 in 10.0 mi SSE 6.9 mph - N/A   Overcast
7:55 AM 55.2 °F - 55.2 °F 100% 29.77 in 10.0 mi SSE 6.9 mph - N/A   Overcast
8:25 AM 55.4 °F - 55.4 °F 100% 29.78 in 10.0 mi SSE 6.9 mph - N/A   Overcast
8:37 AM 55.4 °F - 55.4 °F 100% 29.78 in 10.0 mi South 8.1 mph - N/A   Mostly Cloudy
8:43 AM 57.2 °F - 57.2 °F 100% 29.79 in 10.0 mi South 8.1 mph - N/A   Mostly Cloudy
8:45 AM 57.2 °F - 57.2 °F 100% 29.79 in 10.0 mi South 9.2 mph - N/A   Mostly Cloudy
8:47 AM 57.2 °F - 57.2 °F 100% 29.79 in 10.0 mi South 9.2 mph - N/A   Mostly Cloudy
8:50 AM 57.2 °F - 57.2 °F 100% 29.79 in 10.0 mi South 10.4 mph - N/A   Mostly Cloudy
8:55 AM 57.4 °F - 56.7 °F 97% 29.79 in 10.0 mi South 9.2 mph - N/A   Mostly Cloudy
9:09 AM 57.2 °F - 55.4 °F 94% 29.80 in 10.0 mi SW 5.8 mph - N/A   Mostly Cloudy
9:25 AM 59.0 °F - 53.6 °F 82% 29.81 in 10.0 mi WSW 8.1 mph - N/A   Mostly Cloudy
9:50 AM 59.0 °F - 53.6 °F 82% 29.81 in 10.0 mi NNW 3.5 mph - N/A   Mostly Cloudy
9:55 AM 59.5 °F - 52.3 °F 77% 29.81 in 10.0 mi North 6.9 mph - N/A   Mostly Cloudy
10:55 AM 63.7 °F - 52.5 °F 67% 29.81 in 10.0 mi NNE 13.8 mph - N/A   Scattered Clouds
11:55 AM 66.0 °F - 52.3 °F 61% 29.84 in 10.0 mi North 15.0 mph 24.2 mph N/A   Mostly Cloudy
12:55 PM 59.2 °F - 50.2 °F 72% 29.87 in 10.0 mi North 28.8 mph 38.0 mph N/A   Overcast
1:55 PM 59.9 °F - 46.8 °F 62% 29.90 in 10.0 mi North 24.2 mph 39.1 mph N/A   Overcast
2:46 PM 57.2 °F - 44.6 °F 63% 29.93 in 10.0 mi North 23.0 mph 28.8 mph N/A   Light Drizzle
2:55 PM 58.3 °F - 46.0 °F 64% 29.92 in 10.0 mi NNE 27.6 mph 33.4 mph 0.00 in Rain Light Rain
3:12 PM 59.0 °F - 46.4 °F 63% 29.93 in 10.0 mi North 24.2 mph 33.4 mph N/A   Scattered Clouds
4:55 PM 54.7 °F - 43.7 °F 66% 29.99 in 10.0 mi North 21.9 mph 32.2 mph N/A   Overcast
5:55 PM 53.1 °F - 40.5 °F 62% 30.04 in 10.0 mi North 16.1 mph - N/A   Partly Cloudy
6:55 PM 51.1 °F - 37.9 °F 61% 30.06 in 10.0 mi North 12.7 mph - N/A   Clear
7:55 PM 49.1 °F - 34.2 °F 56% 30.09 in 10.0 mi North 11.5 mph - N/A   Clear
8:55 PM 47.1 °F - 33.4 °F 59% 30.11 in 10.0 mi North 15.0 mph - N/A   Clear
9:55 PM 46.4 °F 41.5 °F 33.3 °F 60% 30.15 in 10.0 mi North 10.4 mph - N/A   Clear
10:55 PM 45.1 °F 39.1 °F 33.4 °F 64% 30.16 in 10.0 mi North 12.7 mph - N/A   Clear
11:55 PM 44.8 °F 39.4 °F 32.7 °F 63% 30.18 in 10.0 mi North 10.4 mph - N/A   Clear